User: anonymous   Login
Location: Festilli
(46.4000°N, 11.6667°E)
Time: 19:42:40
(UTC+00:00)
Language:

Cosmos 1844 - Orbit

View from above orbital plane
View from above orbital plane
View from above satellite
View from above satellite

Ground track
Ground track

The orbit data is extracted from the following two-line orbital elements,

1 17973U 87041A   21136.46123118  .00000075  00000-0  64413-4 0  9990
2 17973  70.8976 141.1644 0029548 144.8058 215.5023 14.14125629754992
Epoch (UTC): 16 May 2021 11:04:10
Eccentricity: 0.0029548
inclination: 70.8976°
perigee height: 824 km
apogee height: 866 km
right ascension of ascending node: 141.1644°
argument of perigee: 144.8058°
revolutions per day: 14.14125629
mean anomaly at epoch: 215.5023°
orbit number at epoch: 75499

The dashed part of the orbit path shows where the satellite is in the earth's shadow,  

DLR